This is the latest recevied weather packets stored in our database for station/object IT9FBN-3. If no packets are shown the sender has not sent any weather packets the latest 1 day(s).
| Time | Temp. | Humidity | Pressure | Rain* | Wind** | Luminosity | Snow |
|---|---|---|---|---|---|---|---|
| 1777990503 | 20° C | 56% | 1017.2 hPa | 0 mm | 4.47 m/s, 16° | - | - |
| 1777990203 | 20° C | 53% | 1017.3 hPa | 0 mm | 4.02 m/s, 16° | - | - |
| 1777989903 | 20.56° C | 54% | 1017.3 hPa | 0 mm | 4.02 m/s, 11° | - | - |
| 1777989603 | 20.56° C | 54% | 1017.3 hPa | 0 mm | 4.02 m/s, 7° | - | - |
| 1777989303 | 20.56° C | 53% | 1017.3 hPa | 0 mm | 4.02 m/s, 11° | - | - |
| 1777989003 | 20.56° C | 54% | 1017.3 hPa | 0 mm | 3.58 m/s, 14° | - | - |
| 1777988703 | 20.56° C | 56% | 1017.3 hPa | 0 mm | 4.02 m/s, 14° | - | - |
| 1777988402 | 20.56° C | 55% | 1017.3 hPa | 0 mm | 4.02 m/s, 17° | - | - |
| 1777988103 | 20.56° C | 54% | 1017.3 hPa | 0 mm | 4.02 m/s, 12° | - | - |
| 1777987803 | 20.56° C | 53% | 1017.4 hPa | 0 mm | 4.02 m/s, 14° | - | - |
| 1777987503 | 20.56° C | 52% | 1017.4 hPa | 0 mm | 4.02 m/s, 24° | - | - |
| 1777987203 | 21.11° C | 52% | 1017.5 hPa | 0 mm | 3.58 m/s, 25° | - | - |
| 1777986903 | 21.11° C | 54% | 1017.5 hPa | 0 mm | 3.58 m/s, 22° | - | - |
| 1777986603 | 20.56° C | 57% | 1017.5 hPa | 0 mm | 4.02 m/s, 17° | - | - |
| 1777986303 | 20.56° C | 59% | 1017.6 hPa | 0 mm | 4.02 m/s, 10° | - | - |
| 1777986003 | 20.56° C | 60% | 1017.4 hPa | 0 mm | 4.47 m/s, 12° | - | - |
| 1777985703 | 20.56° C | 60% | 1017.6 hPa | 0 mm | 4.02 m/s, 12° | - | - |
| 1777985403 | 20.56° C | 60% | 1017.6 hPa | 0 mm | 3.58 m/s, 4° | - | - |
| 1777985103 | 20.56° C | 62% | 1017.7 hPa | 0 mm | 3.58 m/s, 6° | - | - |
| 1777984803 | 20.56° C | 63% | 1017.8 hPa | 0 mm | 3.58 m/s, 12° | - | - |
| 1777984503 | 20° C | 65% | 1017.8 hPa | 0 mm | 4.02 m/s, 8° | - | - |
| 1777984203 | 20° C | 64% | 1018 hPa | 0 mm | 4.02 m/s, 359° | - | - |
| 1777983903 | 20° C | 65% | 1017.8 hPa | 0 mm | 4.02 m/s, 3° | - | - |
| 1777983603 | 20° C | 68% | 1017.9 hPa | 0 mm | 4.47 m/s, 9° | - | - |
| 1777983303 | 20° C | 69% | 1017.9 hPa | 0 mm | 4.92 m/s, 16° | - | - |
* Rain latest hour (hover to see other rain measurements)
** Current wind speed in m/s (hover to see current wind gust speed)